Powrót do katalogu

STARLINK-32582

AktywnyŁącznośćVLEO
NORAD 62033·PAYLOAD·🇺🇸 United States

Wystrzelony Nov 21, 2024 z Cape Canaveral Space Force Station

Loading…

Następne Przeloty (najbliższe 24 godziny)

TLE

ŚwieżeSource: CelesTrak SupGP

Epoka: Sep 15, 2026, 03:01 UTC

1 62033C 24216B   26258.12618056 -.00010429  00000+0 -37765-3 0  2587
2 62033  43.0025 273.5000 0001482 269.2205 192.7676 15.27591705    19

Śledź STARLINK-32582 w czasie rzeczywistym z AllMySat

Download on the App Store